Flag for Germany Weather past 2 weeks in Mühlhausen/Thüringen, Thuringia, Germany

Now
52 °F

Partly sunny.


Feels Like: 49 °F
Forecast: 41 / 60 °F
Wind: 9 mph from Northwest

Location: Erfurt-Bindersleben

Current Time: Sep 22, 2014 at 10:41:56 AM

Latest Report: Sep 22, 2014 at 10:00 AM


Visibility: 13 mi

Pressure: 29.97 "Hg

Humidity: 83%

Dew point: 47 °F

Location of Mühlhausen/ThüringenLocation

Historic Weather in Mühlhausen/Thüringen — Graph

°F

Mühlhausen/Thüringen temperature yesterday

Maximum temperature yesterday: 62 °F (at 3:00 PM)
Minimum temperature yesterday: 53 °F (at 11:00 PM)
Average temperature yesterday: 57 °F

Past Weeks' High & Low Weather Summary

 TemperatureHumidityPressure
High73 °F (Sep 19, 2:00 PM)99% (Sep 13, 3:00 AM)30.18 "Hg (Sep 13, 3:00 AM)
Low50 °F (Sep 22, 7:00 AM)53% (Sep 16, 4:00 PM)29.87 "Hg (Sep 19, 2:00 PM)
Average60 °F87%30.02 "Hg
* Reported Sep 7 10:00 AM — Sep 22 10:00 AM, Mühlhausen/Thüringen, Weather by CustomWeather, © 2014

Note: Actual official high and low records may vary slightly from our data, if they occured in-between our weather recording intervals... More about our weather records

Advertising

Mühlhausen/Thüringen weather history for previous 24 hours

 ConditionsComfort  
Time TempWeatherWind HumidityBarometerVisibility
10:00 AM
Sep 22
52 °FPartly sunny.9 mph83%29.97 "Hg12 mi
9:00 AM50 °FOvercast.7 mph88%29.98 "Hg16 mi
8:00 AM50 °FPartly sunny.7 mph89%29.99 "Hg11 mi
7:00 AM50 °FPassing clouds.6 mph90%29.98 "Hg11 mi
6:00 AM50 °FOvercast.7 mph92%29.98 "Hg16 mi
5:00 AM50 °FOvercast.5 mph92%29.99 "Hg12 mi
4:00 AM51 °FOvercast.6 mph95%29.99 "Hg12 mi
3:00 AM51 °FLow clouds.7 mph95%30.00 "Hg12 mi
2:00 AM51 °FOvercast.6 mph92%30.00 "Hg16 mi
1:00 AM51 °FOvercast.6 mph92%30.00 "Hg19 mi
12:00 AM52 °FPassing clouds.7 mph88%30.00 "Hg19 mi
11:00 PM
Sep 21
53 °FPassing clouds.7 mph88%29.99 "Hg19 mi
10:00 PM53 °FPassing clouds.6 mph93%29.98 "Hg19 mi
9:00 PM54 °FOvercast.3 mph93%29.97 "Hg19 mi
8:00 PM56 °FOvercast.3 mph92%29.96 "Hg16 mi
7:00 PM56 °FOvercast.5 mph94%29.94 "Hg16 mi
6:00 PM56 °FLight rain. Overcast.5 mph94%29.93 "Hg9 mi
5:00 PM56 °FSprinkles. Low clouds.5 mph97%29.93 "Hg4 mi
4:00 PM57 °FRain showers. Low clouds.8 mph95%29.91 "Hg2 mi
3:00 PM62 °FSprinkles. Overcast.3 mph88%29.89 "Hg7 mi
2:00 PM61 °FOvercast.5 mph93%29.90 "Hg6 mi
1:00 PM61 °FOvercast.5 mph90%29.92 "Hg6 mi
12:00 PM60 °FOvercast.5 mph93%29.92 "Hg4 mi
11:00 AM60 °FRain. Low clouds.5 mph96%29.93 "Hg3 mi
10:00 AM58 °FLight rain. Low clouds.3 mph96%29.93 "Hg4 mi
Weather by CustomWeather, © 2014

See weather overviewHow to use our weather pages